HISTORICAL SENSOR DATA

Sensor Data Report

DB LIVE
CURRENT TIME--:--:--
DEVICE NETWORK Gateway Status
13 ESP · realtime ~1s · history 60s
Weather WS-MOD-01
OFFLINE
Actuator ACT-MOD-01
OFFLINE
Mainboard L3 MB-L3-01
ONLINE
Mainboard L5 MB-L5-01
OFFLINE
Remote AC AC-REMOTE-01
OFFLINE
PZEM L3-01 PWR-L3-01
OFFLINE
PZEM L3-02 PWR-L3-02
OFFLINE
PZEM L3-03 PWR-L3-03
OFFLINE
PZEM L3-04 PWR-L3-04
OFFLINE
PZEM L5-01 PWR-L5-01
OFFLINE
PZEM L5-02 PWR-L5-02
OFFLINE
PZEM L5-03 PWR-L5-03
OFFLINE
PZEM L5-04 PWR-L5-04
OFFLINE
REPORT FILTER

Periode & Sensor

DATABASE HISTORY
RESET
QUICK RANGE Hari ini 7 hari 30 hari
PERIODE31 Aug 2026sampai 06 Sep 2026
TOTAL DATA45,594sensor readings
MINIMUM-0.50sesuai filter
AVERAGE92.16sesuai filter
MAXIMUM32,564.20sesuai filter
REPORT RESULT

Data Sensor

31/08/2026 — 06/09/2026 EXPORT CSV
NOTANGGALWAKTUDEVICECHANNELSENSORVALUEUNIT
2201 06/09/2026 15:43:00 MB-L5-01Mainboard Lantai 5 L5-LUX-01 Illuminance / LUX 1 718.50 lux
2202 06/09/2026 15:43:00 MB-L5-01Mainboard Lantai 5 L5-RAD-01 Radiation 1 18.00 W/m²
2203 06/09/2026 15:43:00 MB-L5-01Mainboard Lantai 5 L5-SHT-01-T SHT20 1 Temperature 30.60 °C
2204 06/09/2026 15:43:00 MB-L5-01Mainboard Lantai 5 L5-SHT-03-RH SHT20 3 Humidity 40.20 %RH
2205 06/09/2026 15:43:00 WS-MOD-01Weather Station Module WS-TEMP Suhu Udara 28.20 °C
2206 06/09/2026 15:43:00 MB-L5-01Mainboard Lantai 5 L5-SHT-02-T SHT20 2 Temperature 29.80 °C
2207 06/09/2026 15:43:00 MB-L5-01Mainboard Lantai 5 L5-LUX-06 Illuminance / LUX 6 1,579.30 lux
2208 06/09/2026 15:43:00 WS-MOD-01Weather Station Module WS-PRES Tekanan Udara 908.00 hPa
2209 06/09/2026 15:43:00 MB-L5-01Mainboard Lantai 5 L5-LUX-02 Illuminance / LUX 2 2,555.40 lux
2210 06/09/2026 14:50:00 MB-L3-01Mainboard Lantai 3 L3-BGT-03 Black Globe Temperature 3 29.90 °C
2211 06/09/2026 14:50:00 MB-L3-01Mainboard Lantai 3 L3-ST-02 Surface Temperature 2 30.90 °C
2212 06/09/2026 14:50:00 MB-L3-01Mainboard Lantai 3 L3-AI-05 Analog Input 5 3.12 V
2213 06/09/2026 14:50:00 MB-L3-01Mainboard Lantai 3 L3-BGT-02 Black Globe Temperature 2 29.90 °C
2214 06/09/2026 14:50:00 MB-L3-01Mainboard Lantai 3 L3-AI-06 Analog Input 6 3.12 V
2215 06/09/2026 14:50:00 MB-L3-01Mainboard Lantai 3 L3-ST-01 Surface Temperature 1 30.70 °C
2216 06/09/2026 14:50:00 MB-L3-01Mainboard Lantai 3 L3-AI-01 Analog Input 1 3.12 V
2217 06/09/2026 14:50:00 MB-L3-01Mainboard Lantai 3 L3-BGT-01 Black Globe Temperature 1 30.10 °C
2218 06/09/2026 14:50:00 MB-L3-01Mainboard Lantai 3 L3-AI-02 Analog Input 2 3.12 V
2219 06/09/2026 14:50:00 MB-L3-01Mainboard Lantai 3 L3-HFT-02 Heat Flow Temperature 2 30.60 °C
2220 06/09/2026 14:50:00 MB-L3-01Mainboard Lantai 3 L3-AI-03 Analog Input 3 3.12 V
2221 06/09/2026 14:50:00 MB-L3-01Mainboard Lantai 3 L3-HFT-01 Heat Flow Temperature 1 30.90 °C
2222 06/09/2026 14:50:00 MB-L3-01Mainboard Lantai 3 L3-AI-04 Analog Input 4 3.12 V
2223 06/09/2026 14:49:00 MB-L3-01Mainboard Lantai 3 L3-BGT-02 Black Globe Temperature 2 29.90 °C
2224 06/09/2026 14:49:00 MB-L3-01Mainboard Lantai 3 L3-AI-06 Analog Input 6 3.12 V
2225 06/09/2026 14:49:00 MB-L3-01Mainboard Lantai 3 L3-ST-01 Surface Temperature 1 30.60 °C
2226 06/09/2026 14:49:00 MB-L3-01Mainboard Lantai 3 L3-AI-01 Analog Input 1 3.12 V
2227 06/09/2026 14:49:00 MB-L3-01Mainboard Lantai 3 L3-BGT-01 Black Globe Temperature 1 30.10 °C
2228 06/09/2026 14:49:00 MB-L3-01Mainboard Lantai 3 L3-AI-02 Analog Input 2 3.12 V
2229 06/09/2026 14:49:00 MB-L3-01Mainboard Lantai 3 L3-HFT-02 Heat Flow Temperature 2 30.50 °C
2230 06/09/2026 14:49:00 MB-L3-01Mainboard Lantai 3 L3-AI-03 Analog Input 3 3.12 V
2231 06/09/2026 14:49:00 MB-L3-01Mainboard Lantai 3 L3-HFT-01 Heat Flow Temperature 1 30.90 °C
2232 06/09/2026 14:49:00 MB-L3-01Mainboard Lantai 3 L3-AI-04 Analog Input 4 3.12 V
2233 06/09/2026 14:49:00 MB-L3-01Mainboard Lantai 3 L3-BGT-03 Black Globe Temperature 3 29.80 °C
2234 06/09/2026 14:49:00 MB-L3-01Mainboard Lantai 3 L3-ST-02 Surface Temperature 2 30.80 °C
2235 06/09/2026 14:49:00 MB-L3-01Mainboard Lantai 3 L3-AI-05 Analog Input 5 3.12 V
2236 06/09/2026 14:48:00 MB-L3-01Mainboard Lantai 3 L3-BGT-01 Black Globe Temperature 1 30.00 °C
2237 06/09/2026 14:48:00 MB-L3-01Mainboard Lantai 3 L3-AI-02 Analog Input 2 3.12 V
2238 06/09/2026 14:48:00 MB-L3-01Mainboard Lantai 3 L3-HFT-02 Heat Flow Temperature 2 30.60 °C
2239 06/09/2026 14:48:00 MB-L3-01Mainboard Lantai 3 L3-AI-03 Analog Input 3 3.12 V
2240 06/09/2026 14:48:00 MB-L3-01Mainboard Lantai 3 L3-HFT-01 Heat Flow Temperature 1 30.70 °C
2241 06/09/2026 14:48:00 MB-L3-01Mainboard Lantai 3 L3-AI-04 Analog Input 4 3.12 V
2242 06/09/2026 14:48:00 MB-L3-01Mainboard Lantai 3 L3-BGT-03 Black Globe Temperature 3 29.70 °C
2243 06/09/2026 14:48:00 MB-L3-01Mainboard Lantai 3 L3-ST-02 Surface Temperature 2 30.70 °C
2244 06/09/2026 14:48:00 MB-L3-01Mainboard Lantai 3 L3-AI-05 Analog Input 5 3.12 V
2245 06/09/2026 14:48:00 MB-L3-01Mainboard Lantai 3 L3-BGT-02 Black Globe Temperature 2 29.80 °C
2246 06/09/2026 14:48:00 MB-L3-01Mainboard Lantai 3 L3-AI-06 Analog Input 6 3.12 V
2247 06/09/2026 14:48:00 MB-L3-01Mainboard Lantai 3 L3-ST-01 Surface Temperature 1 30.60 °C
2248 06/09/2026 14:48:00 MB-L3-01Mainboard Lantai 3 L3-AI-01 Analog Input 1 3.12 V
2249 06/09/2026 14:47:00 MB-L3-01Mainboard Lantai 3 L3-HFT-02 Heat Flow Temperature 2 30.50 °C
2250 06/09/2026 14:47:00 MB-L3-01Mainboard Lantai 3 L3-AI-03 Analog Input 3 3.12 V
2251 06/09/2026 14:47:00 MB-L3-01Mainboard Lantai 3 L3-HFT-01 Heat Flow Temperature 1 30.60 °C
2252 06/09/2026 14:47:00 MB-L3-01Mainboard Lantai 3 L3-AI-04 Analog Input 4 3.12 V
2253 06/09/2026 14:47:00 MB-L3-01Mainboard Lantai 3 L3-BGT-03 Black Globe Temperature 3 29.70 °C
2254 06/09/2026 14:47:00 MB-L3-01Mainboard Lantai 3 L3-ST-02 Surface Temperature 2 30.60 °C
2255 06/09/2026 14:47:00 MB-L3-01Mainboard Lantai 3 L3-AI-05 Analog Input 5 3.12 V
2256 06/09/2026 14:47:00 MB-L3-01Mainboard Lantai 3 L3-BGT-02 Black Globe Temperature 2 29.70 °C
2257 06/09/2026 14:47:00 MB-L3-01Mainboard Lantai 3 L3-AI-06 Analog Input 6 3.12 V
2258 06/09/2026 14:47:00 MB-L3-01Mainboard Lantai 3 L3-ST-01 Surface Temperature 1 30.40 °C
2259 06/09/2026 14:47:00 MB-L3-01Mainboard Lantai 3 L3-AI-01 Analog Input 1 3.12 V
2260 06/09/2026 14:47:00 MB-L3-01Mainboard Lantai 3 L3-BGT-01 Black Globe Temperature 1 30.00 °C
2261 06/09/2026 14:47:00 MB-L3-01Mainboard Lantai 3 L3-AI-02 Analog Input 2 3.12 V
2262 06/09/2026 14:46:00 MB-L3-01Mainboard Lantai 3 L3-HFT-01 Heat Flow Temperature 1 30.60 °C
2263 06/09/2026 14:46:00 MB-L3-01Mainboard Lantai 3 L3-AI-04 Analog Input 4 3.12 V
2264 06/09/2026 14:46:00 MB-L3-01Mainboard Lantai 3 L3-BGT-03 Black Globe Temperature 3 29.40 °C
2265 06/09/2026 14:46:00 MB-L3-01Mainboard Lantai 3 L3-ST-02 Surface Temperature 2 30.30 °C
2266 06/09/2026 14:46:00 MB-L3-01Mainboard Lantai 3 L3-AI-05 Analog Input 5 3.12 V
2267 06/09/2026 14:46:00 MB-L3-01Mainboard Lantai 3 L3-BGT-02 Black Globe Temperature 2 29.60 °C
2268 06/09/2026 14:46:00 MB-L3-01Mainboard Lantai 3 L3-AI-06 Analog Input 6 3.12 V
2269 06/09/2026 14:46:00 MB-L3-01Mainboard Lantai 3 L3-ST-01 Surface Temperature 1 30.10 °C
2270 06/09/2026 14:46:00 MB-L3-01Mainboard Lantai 3 L3-AI-01 Analog Input 1 3.12 V
2271 06/09/2026 14:46:00 MB-L3-01Mainboard Lantai 3 L3-BGT-01 Black Globe Temperature 1 29.60 °C
2272 06/09/2026 14:46:00 MB-L3-01Mainboard Lantai 3 L3-AI-02 Analog Input 2 3.12 V
2273 06/09/2026 14:46:00 MB-L3-01Mainboard Lantai 3 L3-HFT-02 Heat Flow Temperature 2 30.00 °C
2274 06/09/2026 14:46:00 MB-L3-01Mainboard Lantai 3 L3-AI-03 Analog Input 3 3.12 V
2275 06/09/2026 14:45:00 MB-L3-01Mainboard Lantai 3 L3-ST-02 Surface Temperature 2 30.60 °C
2276 06/09/2026 14:45:00 MB-L3-01Mainboard Lantai 3 L3-AI-05 Analog Input 5 3.12 V
2277 06/09/2026 14:45:00 MB-L3-01Mainboard Lantai 3 L3-BGT-02 Black Globe Temperature 2 29.50 °C
2278 06/09/2026 14:45:00 MB-L3-01Mainboard Lantai 3 L3-AI-06 Analog Input 6 3.12 V
2279 06/09/2026 14:45:00 MB-L3-01Mainboard Lantai 3 L3-ST-01 Surface Temperature 1 30.40 °C
2280 06/09/2026 14:45:00 MB-L3-01Mainboard Lantai 3 L3-AI-01 Analog Input 1 3.12 V
2281 06/09/2026 14:45:00 MB-L3-01Mainboard Lantai 3 L3-BGT-01 Black Globe Temperature 1 29.90 °C
2282 06/09/2026 14:45:00 MB-L3-01Mainboard Lantai 3 L3-AI-02 Analog Input 2 3.12 V
2283 06/09/2026 14:45:00 MB-L3-01Mainboard Lantai 3 L3-HFT-02 Heat Flow Temperature 2 30.30 °C
2284 06/09/2026 14:45:00 MB-L3-01Mainboard Lantai 3 L3-AI-03 Analog Input 3 3.12 V
2285 06/09/2026 14:45:00 MB-L3-01Mainboard Lantai 3 L3-HFT-01 Heat Flow Temperature 1 30.40 °C
2286 06/09/2026 14:45:00 MB-L3-01Mainboard Lantai 3 L3-AI-04 Analog Input 4 3.12 V
2287 06/09/2026 14:45:00 MB-L3-01Mainboard Lantai 3 L3-BGT-03 Black Globe Temperature 3 29.70 °C
2288 06/09/2026 14:44:00 MB-L3-01Mainboard Lantai 3 L3-AI-06 Analog Input 6 3.12 V
2289 06/09/2026 14:44:00 MB-L3-01Mainboard Lantai 3 L3-ST-01 Surface Temperature 1 30.00 °C
2290 06/09/2026 14:44:00 MB-L3-01Mainboard Lantai 3 L3-AI-01 Analog Input 1 3.12 V
2291 06/09/2026 14:44:00 MB-L3-01Mainboard Lantai 3 L3-BGT-01 Black Globe Temperature 1 29.50 °C
2292 06/09/2026 14:44:00 MB-L3-01Mainboard Lantai 3 L3-AI-02 Analog Input 2 3.12 V
2293 06/09/2026 14:44:00 MB-L3-01Mainboard Lantai 3 L3-HFT-02 Heat Flow Temperature 2 29.80 °C
2294 06/09/2026 14:44:00 MB-L3-01Mainboard Lantai 3 L3-AI-03 Analog Input 3 3.12 V
2295 06/09/2026 14:44:00 MB-L3-01Mainboard Lantai 3 L3-HFT-01 Heat Flow Temperature 1 30.10 °C
2296 06/09/2026 14:44:00 MB-L3-01Mainboard Lantai 3 L3-AI-04 Analog Input 4 3.12 V
2297 06/09/2026 14:44:00 MB-L3-01Mainboard Lantai 3 L3-BGT-03 Black Globe Temperature 3 29.30 °C
2298 06/09/2026 14:44:00 MB-L3-01Mainboard Lantai 3 L3-ST-02 Surface Temperature 2 30.20 °C
2299 06/09/2026 14:44:00 MB-L3-01Mainboard Lantai 3 L3-AI-05 Analog Input 5 3.12 V
2300 06/09/2026 14:44:00 MB-L3-01Mainboard Lantai 3 L3-BGT-02 Black Globe Temperature 2 29.40 °C
Menampilkan maksimal 100 data per halaman